This is the latest recevied weather packets stored in our database for station/object KC0SIQ-13. If no packets are shown the sender has not sent any weather packets the latest 10 day(s).
| Time | Temp. | Humidity | Pressure | Rain* | Wind** | Luminosity | Snow |
|---|---|---|---|---|---|---|---|
| 1777995147 | 1.67° C | 99% | 1013.3 hPa | 3.05 mm | - | 78 W/m² | - |
| 1777994844 | 1.67° C | 99% | 1012.8 hPa | 3.05 mm | - | 68 W/m² | - |
| 1777994540 | 1.67° C | 99% | 1013 hPa | 3.05 mm | - | 68 W/m² | - |
| 1777994235 | 1.67° C | 99% | 1013.2 hPa | 3.05 mm | - | 59 W/m² | - |
| 1777993933 | 1.67° C | 99% | 1013.2 hPa | 3.56 mm | - | 59 W/m² | - |
| 1777993629 | 1.67° C | 99% | 1012.8 hPa | 3.05 mm | - | 62 W/m² | - |
| 1777993326 | 1.67° C | 99% | 1013.2 hPa | 1.27 mm | - | 72 W/m² | - |
| 1777993026 | 1.11° C | 99% | 1013.1 hPa | 1.78 mm | - | 83 W/m² | - |
| 1777992725 | 1.11° C | 99% | 1013.2 hPa | 3.05 mm | - | 80 W/m² | - |
| 1777992422 | 1.11° C | 99% | 1013 hPa | 1.27 mm | - | 64 W/m² | - |
| 1777992120 | 1.11° C | 99% | 1013 hPa | 1.78 mm | - | 50 W/m² | - |
| 1777991817 | 0.56° C | 99% | 1013.2 hPa | 3.05 mm | - | 48 W/m² | - |
| 1777991514 | 0.56° C | 99% | 1013.2 hPa | 3.05 mm | - | 44 W/m² | - |
| 1777991211 | 0.56° C | 99% | 1013.3 hPa | 3.05 mm | - | 40 W/m² | - |
| 1777990909 | 0.56° C | 99% | 1013.3 hPa | 1.27 mm | - | 35 W/m² | - |
| 1777990606 | 0.56° C | 99% | 1013.1 hPa | 1.78 mm | - | 37 W/m² | - |
| 1777989999 | 0.56° C | 99% | 1013.4 hPa | 0 mm | - | 37 W/m² | - |
| 1777989696 | 0.56° C | 99% | 1013.7 hPa | 0 mm | - | 32 W/m² | - |
| 1777989392 | 0.56° C | 99% | 1013.2 hPa | 0 mm | - | 26 W/m² | - |
| 1777989089 | 0.56° C | 99% | 1013.3 hPa | 0 mm | - | 22 W/m² | - |
| 1777988785 | 0.56° C | 99% | 1013.5 hPa | 0 mm | - | 19 W/m² | - |
| 1777988482 | 0.56° C | 99% | 1013.3 hPa | 0 mm | - | 18 W/m² | - |
| 1777988179 | 0.56° C | 99% | 1013.4 hPa | 1.27 mm | - | 16 W/m² | - |
| 1777987875 | 0.56° C | 99% | 1013.2 hPa | 1.27 mm | - | 13 W/m² | - |
| 1777987571 | 0.56° C | 99% | 1013.1 hPa | 1.78 mm | - | 10 W/m² | - |
* Rain latest hour (hover to see other rain measurements)
** Current wind speed in m/s (hover to see current wind gust speed)